User: anonymous   Login
Location: Elstree
(51.6403°N, 0.2969°W)
Time: 18:40:32
(UTC+00:00)
Language:

SL-8 Rocket - Orbit

View from above orbital plane
View from above orbital plane
View from above satellite
View from above satellite

Ground track
Ground track

The orbit data is extracted from the following two-line orbital elements,

1 21088U 91006B   21213.44133339  .00000069  00000-0  54487-4 0  9991
2 21088  82.9448 340.3956 0023769  65.0988 326.4687 13.77174675532913
Epoch (UTC): 01 August 2021 10:35:31
Eccentricity: 0.0023769
inclination: 82.9448°
perigee height: 956 km
apogee height: 991 km
right ascension of ascending node: 340.3956°
argument of perigee: 65.0988°
revolutions per day: 13.77174675
mean anomaly at epoch: 326.4687°
orbit number at epoch: 53291

The dashed part of the orbit path shows where the satellite is in the earth's shadow,  

DLR